When you browse on this site, cookies collect data to enhance your experience and personalize the content and advertising you see.
Visit our Privacy Policy to learn more. By continuing to use the site, you agree to this use of cookies and data.
  • In United Kingdom
  • List of Countries
  • For 7 days
  • Water Temperature
  • Weather Map
  • Weather Widgets
  • user-avatar
    Login

    Hourly Weather Tonton

    Today, 31 May, Sunday

    Time Temperature Precipitation Wind Pressure Humidity
    00:00 +11°C° 0 mm 4 mps 763 mmHg 81%
    01:00 +10°C° 0 mm 3 mps 763 mmHg 82%
    02:00 +10°C° 0 mm 3 mps 763 mmHg 84%
    03:00 +9°C° 0 mm 3 mps 763 mmHg 85%
    04:00 +10°C° 0 mm 3 mps 763 mmHg 85%
    05:00 +11°C° 0 mm 3 mps 763 mmHg 86%
    06:00 +12°C° 0 mm 3 mps 763 mmHg 86%
    07:00 +14°C° 0 mm 4 mps 763 mmHg 82%
    08:00 +17°C° 0 mm 4 mps 763 mmHg 77%
    09:00 +19°C° 0 mm 4 mps 763 mmHg 73%
    10:00 +20°C° 0 mm 5 mps 763 mmHg 68%
    11:00 +21°C° 0 mm 5 mps 764 mmHg 63%
    12:00 +22°C° 0 mm 5 mps 764 mmHg 58%
    13:00 +22°C° 0 mm 5 mps 764 mmHg 59%
    14:00 +22°C° 0 mm 5 mps 764 mmHg 61%
    15:00 +22°C° 0 mm 5 mps 764 mmHg 62%
    16:00 +21°C° 0 mm 5 mps 764 mmHg 65%
    17:00 +20°C° 0 mm 4 mps 764 mmHg 68%
    18:00 +19°C° 0 mm 3 mps 764 mmHg 71%
    19:00 +17°C° 0 mm 3 mps 764 mmHg 74%
    20:00 +16°C° 0 mm 3 mps 764 mmHg 78%
    21:00 +13°C° 0 mm 3 mps 765 mmHg 81%
    22:00 +12°C° 0 mm 3 mps 765 mmHg 82%
    23:00 +11°C° 0 mm 4 mps 765 mmHg 83%

    Tomorrow, 1 June, Monday

    Time Temperature Precipitation Wind Pressure Humidity
    00:00 +10°C° 0 mm 4 mps 765 mmHg 85%
    01:00 +8°C° 0 mm 4 mps 765 mmHg 87%
    02:00 +9°C° 0 mm 3 mps 765 mmHg 89%
    03:00 +8°C° 0 mm 3 mps 765 mmHg 91%
    04:00 +8°C° 0 mm 4 mps 765 mmHg 90%
    05:00 +10°C° 0 mm 4 mps 765 mmHg 88%
    06:00 +11°C° 0 mm 4 mps 765 mmHg 87%
    07:00 +13°C° 0 mm 5 mps 765 mmHg 83%
    08:00 +14°C° 0 mm 5 mps 765 mmHg 79%
    09:00 +16°C° 0 mm 5 mps 765 mmHg 76%
    10:00 +19°C° 0 mm 5 mps 765 mmHg 72%
    11:00 +20°C° 0 mm 5 mps 765 mmHg 69%
    12:00 +21°C° 0 mm 5 mps 765 mmHg 65%
    13:00 +21°C° 0 mm 5 mps 765 mmHg 66%
    14:00 +22°C° 0 mm 4 mps 765 mmHg 67%
    15:00 +22°C° 0 mm 4 mps 765 mmHg 67%
    16:00 +21°C° 0.1 mm 4 mps 765 mmHg 71%
    17:00 +21°C° 0.1 mm 3 mps 764 mmHg 75%
    18:00 +20°C° 0.1 mm 3 mps 764 mmHg 79%
    19:00 +19°C° 0 mm 3 mps 765 mmHg 83%
    20:00 +18°C° 0 mm 3 mps 765 mmHg 88%
    21:00 +16°C° 0 mm 3 mps 765 mmHg 92%
    22:00 +14°C° 0 mm 3 mps 765 mmHg 92%
    23:00 +14°C° 0 mm 3 mps 765 mmHg 93%

    Day after tomorrow, 2 June, Tuesday

    Time Temperature Precipitation Wind Pressure Humidity
    00:00 +13°C° 0 mm 3 mps 765 mmHg 94%
    01:00 +12°C° 0 mm 3 mps 765 mmHg 94%
    02:00 +12°C° 0 mm 3 mps 765 mmHg 95%
    03:00 +11°C° 0 mm 3 mps 764 mmHg 96%
    04:00 +11°C° 0 mm 3 mps 764 mmHg 94%
    05:00 +11°C° 0 mm 3 mps 764 mmHg 92%
    06:00 +11°C° 0 mm 3 mps 764 mmHg 90%
    07:00 +13°C° 0 mm 4 mps 764 mmHg 84%
    08:00 +14°C° 0 mm 4 mps 764 mmHg 77%
    09:00 +17°C° 0 mm 4 mps 764 mmHg 70%
    10:00 +18°C° 0 mm 4 mps 764 mmHg 67%
    11:00 +19°C° 0 mm 3 mps 763 mmHg 64%
    12:00 +20°C° 0 mm 3 mps 763 mmHg 61%
    13:00 +20°C° 0 mm 3 mps 763 mmHg 60%
    14:00 +21°C° 0 mm 3 mps 762 mmHg 60%
    15:00 +21°C° 0 mm 3 mps 762 mmHg 59%
    16:00 +20°C° 0 mm 3 mps 761 mmHg 63%
    17:00 +20°C° 0 mm 3 mps 761 mmHg 67%
    18:00 +19°C° 0 mm 3 mps 760 mmHg 71%
    19:00 +17°C° 0 mm 3 mps 760 mmHg 76%
    20:00 +16°C° 0 mm 2 mps 760 mmHg 80%
    21:00 +14°C° 0 mm 2 mps 760 mmHg 85%
    22:00 +13°C° 0 mm 2 mps 759 mmHg 87%
    23:00 +13°C° 0 mm 2 mps 759 mmHg 88%

    3 June, Wednesday

    Time Temperature Precipitation Wind Pressure Humidity
    00:00 +13°C° 0 mm 1 mps 758 mmHg 90%
    01:00 +13°C° 0 mm 2 mps 758 mmHg 90%
    02:00 +12°C° 0 mm 2 mps 758 mmHg 91%
    03:00 +12°C° 0 mm 2 mps 757 mmHg 91%
    04:00 +13°C° 0 mm 2 mps 757 mmHg 89%
    05:00 +13°C° 0 mm 2 mps 756 mmHg 87%
    06:00 +13°C° 0 mm 2 mps 756 mmHg 85%
    07:00 +14°C° 0 mm 2 mps 756 mmHg 82%
    08:00 +14°C° 0 mm 3 mps 756 mmHg 80%
    09:00 +16°C° 0 mm 3 mps 756 mmHg 77%
    10:00 +17°C° 0.2 mm 3 mps 756 mmHg 78%
    11:00 +17°C° 0.2 mm 4 mps 756 mmHg 78%
    12:00 +18°C° 0.2 mm 4 mps 755 mmHg 78%
    13:00 +18°C° 0.5 mm 4 mps 755 mmHg 78%
    14:00 +18°C° 0.5 mm 4 mps 755 mmHg 78%
    15:00 +19°C° 0.5 mm 4 mps 754 mmHg 79%
    16:00 +18°C° 0.2 mm 4 mps 754 mmHg 80%
    17:00 +17°C° 0.2 mm 5 mps 754 mmHg 82%
    18:00 +16°C° 0.2 mm 5 mps 754 mmHg 84%
    19:00 +15°C° 0 mm 5 mps 754 mmHg 87%
    20:00 +14°C° 0 mm 5 mps 755 mmHg 89%
    21:00 +13°C° 0 mm 5 mps 755 mmHg 92%
    22:00 +12°C° 0 mm 5 mps 755 mmHg 92%
    23:00 +10°C° 0 mm 5 mps 755 mmHg 92%

    4 June, Thursday

    Time Temperature Precipitation Wind Pressure Humidity
    00:00 +10°C° 0 mm 4 mps 755 mmHg 92%
    01:00 +8°C° 0 mm 4 mps 755 mmHg 93%
    02:00 +8°C° 0 mm 4 mps 755 mmHg 94%
    03:00 +7°C° 0 mm 4 mps 755 mmHg 96%
    04:00 +8°C° 0 mm 4 mps 755 mmHg 94%
    05:00 +8°C° 0 mm 4 mps 755 mmHg 93%
    06:00 +10°C° 0 mm 4 mps 755 mmHg 92%
    07:00 +11°C° 0 mm 4 mps 756 mmHg 86%
    08:00 +13°C° 0 mm 4 mps 756 mmHg 79%
    09:00 +14°C° 0 mm 4 mps 756 mmHg 73%
    10:00 +16°C° 0 mm 3 mps 756 mmHg 70%
    11:00 +17°C° 0 mm 3 mps 756 mmHg 67%
    12:00 +17°C° 0 mm 3 mps 756 mmHg 64%
    13:00 +17°C° 0 mm 3 mps 756 mmHg 64%
    14:00 +18°C° 0 mm 3 mps 756 mmHg 64%
    15:00 +18°C° 0 mm 3 mps 756 mmHg 64%
    16:00 +17°C° 0 mm 3 mps 755 mmHg 67%
    17:00 +17°C° 0 mm 3 mps 755 mmHg 70%
    18:00 +17°C° 0 mm 3 mps 755 mmHg 72%
    19:00 +14°C° 0 mm 3 mps 755 mmHg 78%
    20:00 +12°C° 0 mm 3 mps 755 mmHg 83%
    21:00 +12°C° 0 mm 2 mps 756 mmHg 88%
    22:00 +10°C° 0 mm 2 mps 755 mmHg 88%
    23:00 +9°C° 0 mm 2 mps 755 mmHg 87%

    5 June, Friday

    Time Temperature Precipitation Wind Pressure Humidity
    00:00 +9°C° 0 mm 2 mps 755 mmHg 87%
    01:00 +8°C° 0 mm 2 mps 755 mmHg 87%
    02:00 +8°C° 0 mm 2 mps 755 mmHg 87%
    03:00 +7°C° 0 mm 2 mps 755 mmHg 87%
    04:00 +8°C° 0 mm 2 mps 754 mmHg 86%
    05:00 +9°C° 0 mm 2 mps 754 mmHg 85%
    06:00 +10°C° 0 mm 2 mps 754 mmHg 84%
    07:00 +12°C° 0 mm 3 mps 754 mmHg 79%
    08:00 +14°C° 0 mm 3 mps 754 mmHg 74%
    09:00 +17°C° 0 mm 3 mps 754 mmHg 69%
    10:00 +17°C° 0 mm 4 mps 754 mmHg 68%
    11:00 +18°C° 0 mm 4 mps 754 mmHg 67%
    12:00 +18°C° 0 mm 4 mps 754 mmHg 66%
    13:00 +18°C° 0 mm 4 mps 753 mmHg 68%
    14:00 +18°C° 0 mm 4 mps 753 mmHg 69%
    15:00 +18°C° 0 mm 4 mps 753 mmHg 71%
    16:00 +17°C° 0 mm 4 mps 753 mmHg 72%
    17:00 +17°C° 0 mm 4 mps 753 mmHg 74%
    18:00 +17°C° 0 mm 4 mps 753 mmHg 75%
    19:00 +15°C° 0 mm 4 mps 753 mmHg 81%
    20:00 +13°C° 0 mm 3 mps 753 mmHg 87%
    21:00 +12°C° 0 mm 3 mps 753 mmHg 92%
    22:00 +12°C° 0 mm 3 mps 754 mmHg 89%
    23:00 +12°C° 0 mm 3 mps 754 mmHg 87%
    Show more